Location: Wildcat Hills Observatory
(41.6350°N, 103.6812°W)
Time: 16:50:33
(UTC-07:00)

Daily predictions for brighter satellites

Satellite Brightness Start Highest point End
(mag) Time Altitude Azimuth Time Altitude Azimuth Time Altitude Azimuth
SL-16 R/B 2.2 17:56:17 10° NNW 18:01:58 69° ENE 18:07:35 10° SSE
Cosmos 1908 Rocket 3.9 18:03:10 10° SSE 18:07:25 45° E 18:11:42 10° NNE
Cosmos 2297 Rocket 3.0 18:02:14 10° SW 18:07:46 56° WNW 18:13:22 10° NNE
H-2A R/B 3.4 18:04:27 10° SE 18:08:01 35° ENE 18:11:35 10° N
SeaSat 1 4.0 18:05:57 10° E 18:09:00 17° NE 18:12:03 10° N
YAOGAN 1 3.1 18:05:24 10° S 18:09:40 65° WSW 18:14:00 10° NNW
COSMOS 2455 4.1 18:06:51 10° SSE 18:10:54 19° ESE 18:14:59 10° ENE
Cosmos 1733 Rocket 3.5 18:06:38 10° SSW 18:10:55 66° W 18:15:14 10° N
Aureole 3 3.9 18:10:11 10° S 18:15:52 87° E 18:20:16 10° N
USA 215 4.3 18:12:56 10° ENE 18:18:11 25° SE 18:23:25 10° S
SJ-6B 4.0 18:16:53 10° ESE 18:19:47 21° ENE 18:22:45 10° NNE
Cosmos 1603 4.3 18:15:36 10° N 18:20:44 34° ENE 18:25:48 10° ESE
Cosmos 1812 3.1 18:18:41 10° NNW 18:22:33 68° W 18:26:23 10° S
SKYMED 2 4.4 18:22:10 10° N 18:26:26 56° WNW 18:30:40 10° SSW
Envisat 3.9 18:24:49 10° ESE 18:29:00 27° ENE 18:33:12 10° N
Cosmos 1891 Rocket 4.4 18:23:01 10° N 18:29:12 68° E 18:35:14 10° SSE
Meteor 1-20 Rocket 4.3 18:23:55 10° S 18:29:37 82° E 18:35:28 10° NNE
Cosmos 2034 Rocket 4.1 18:23:43 10° N 18:30:01 58° E 18:36:15 10° SSE
HJ-1C 4.3 18:28:32 10° SE 18:31:32 29° ENE 18:34:34 10° N
CZ-2D R/B 4.3 18:29:08 10° SE 18:32:19 25° ENE 18:35:33 10° NNE
ATLAS CENTAUR R/B 3.1 18:30:19 10° N 18:33:05 17° NE 18:34:39 14° ENE
Cosmos 2263 Rocket 3.4 18:29:48 10° SE 18:33:41 20° E 18:37:36 10° NE
Cosmos 1975 Rocket 3.4 18:29:35 10° N 18:33:51 43° ENE 18:38:05 10° SSE
Okean 1 3.2 18:30:50 10° N 18:34:47 62° E 18:38:43 10° SSE
Cosmos 1602 4.0 18:35:35 10° SSE 18:39:18 44° E 18:43:00 10° NNE
Meteor 1-4 Rocket 3.4 18:38:00 10° SSE 18:41:02 28° E 18:44:08 10° NNE
Cosmos 1110 Rocket 4.4 18:38:36 10° N 18:43:39 43° ENE 18:48:41 10° SE
CENTAUR R/B 3.0 18:40:01 10° SW 18:45:58 64° NW 18:52:51 10° NNE
Cosmos 1269 Rocket 4.0 18:41:32 10° SSW 18:46:49 84° ESE 18:52:07 10° NNE
Thor Agena Rocket 3.9 18:42:13 10° NNE 18:46:58 39° E 18:51:39 10° SSE
USA 32 4.0 18:44:49 10° S 18:50:02 84° E 18:55:18 10° N
FREGAT/IRIS 2.4 18:47:39 10° SSE 18:50:36 85° ENE 18:53:36 10° N
USA 267 4.4 18:48:24 14° ENE 18:52:40 27° NNE 18:57:59 10° NW
Cosmos 1378 Rocket 4.3 18:48:59 10° NNW 18:53:19 56° W 18:57:38 10° S
Resurs 01 Rocket 2.7 18:52:52 23° E 18:53:42 25° ENE 18:57:19 10° NNE
EO 1 Del DPAF 4.1 18:51:07 10° N 18:54:51 52° WNW 18:58:34 10° SSW
OAO 2 Rocket 4.1 18:51:34 10° WSW 18:56:09 39° S 18:58:57 21° SE
Cosmos 2227 4.1 18:56:23 10° SSW 19:02:07 82° ESE 19:07:50 10° NNE
Iridium 4 Rocket 3.7 18:58:01 10° N 19:02:42 61° W 19:07:00 10° SSW
Meteor 2-4 Rocket 3.9 18:57:08 10° N 19:02:45 50° ENE 19:08:09 10° SSE
Cosmos 1437 Rocket 3.2 18:59:05 10° SSW 19:03:07 69° W 19:07:14 10° N
Cosmos 1536 Rocket 4.5 19:00:29 10° NNE 19:03:56 28° ENE 19:03:56 28° ENE
Cosmos 1782 Rocket 3.8 19:01:07 10° SSW 19:05:32 71° W 19:09:58 10° N
Cosmos 1536 4.0 19:02:52 10° SSE 19:10:07 11° NNE 19:10:14 10° NNE
Meteor 1-19 Rocket 4.1 19:06:09 10° N 19:11:42 85° E 19:17:17 10° S
CZ-4C R/B 3.2 19:06:47 10° NNW 19:13:34 45° NE 19:17:10 29° E
Cosmos 1331 Rocket 3.9 19:08:20 10° NNW 19:13:39 69° ENE 19:17:51 16° SSE
USA 186 3.3 19:17:38 26° NNE 19:17:38 26° NNE 19:19:21 10° N
Spot 2 Rocket 3.9 19:17:54 37° E 19:18:32 38° ENE 19:23:12 10° N
BREEZE-M DEB (TANK) 1.6 19:16:52 10° WNW 19:19:14 87° NNE 19:19:29 73° ESE
Geosat 4.5 19:20:45 37° ESE 19:20:45 37° ESE 19:25:07 10° S
Meteor 1-11 Rocket 3.6 19:15:11 10° S 19:20:45 74° E 19:26:28 10° NNE
Alouette 2 Rocket 3.0 19:21:30 10° S 19:25:04 80° E 19:28:54 10° NNE
Cosmos 1943 3.2 19:19:42 10° NNW 19:25:20 62° ENE 19:27:32 36° SE
Tsikada Rocket 4.3 19:21:50 10° SSW 19:28:12 70° W 19:34:38 10° N
Gbstr 26 Del rocket 3.0 19:26:00 10° WSW 19:29:41 62° NNW 19:30:23 51° NNE
Okean 2 Rocket 3.6 19:27:44 10° SSW 19:32:03 60° W 19:36:26 10° N
ERS-2 4.2 19:29:39 10° SSW 19:32:53 29° W 19:36:08 10° NW
Cosmos 2251 Rocket 3.4 19:28:53 10° S 19:34:02 64° ESE 19:36:55 26° NNE
ARGOS Delta rocket 4.0 19:31:01 10° N 19:35:48 70° WNW 19:40:17 10° SSW
Cosmos 1939 Rocket 3.4 19:37:00 47° NNE 19:37:00 47° NNE 19:40:07 10° N
Cosmos 2151 Rocket 3.5 19:37:11 10° S 19:41:39 89° E 19:46:09 10° N
Cosmos 1302 Rocket 3.8 19:39:58 10° NNW 19:45:10 74° ENE 19:45:36 69° ESE
SeaSat 1 2.4 19:44:26 46° SSE 19:45:56 81° WSW 19:50:53 10° NNW
Cosmos 1184 Rocket 4.3 19:44:24 10° NNW 19:46:44 35° NW 19:46:44 35° NW
COSMOS 2455 3.1 19:50:13 10° SW 19:56:12 69° WNW 20:00:54 17° NNE
Meteor 1-23 Rocket 4.2 19:51:18 10° N 19:57:11 90° WSW 19:58:52 49° S
USA 215 3.2 19:59:06 41° NE 20:01:40 86° NW 20:08:12 10° SW
Cosmos 2279 Rocket 3.8 19:57:59 10° N 20:04:15 75° E 20:04:23 75° E
Envisat 4.3 20:03:10 10° SSW 20:07:50 37° W 20:12:33 10° NNW
BREEZE-M DEB (TANK) 4.1 20:06:37 10° WSW 20:10:15 72° NNW 20:23:23 10° NE
Resurs 1-3 4.5 20:10:50 48° W 20:10:50 48° W 20:14:50 10° NNW
ATLAS CENTAUR R/B 2.7 20:08:12 10° NW 20:10:56 39° NW 20:10:56 39° NW
Cosmos 2263 Rocket 2.7 20:11:38 10° SW 20:17:05 57° WNW 20:19:30 32° N
Resurs 01 Rocket 3.4 20:30:26 30° W 20:30:26 30° W 20:33:59 10° NW
USA 267 3.6 20:35:45 54° N 20:35:45 54° N 20:41:15 10° NW
H-2A R/B 4.5 20:59:13 16° N 20:59:13 16° N 21:00:13 10° N
CZ-4C R/B 3.6 20:55:19 10° NW 21:02:19 48° WSW 21:02:25 48° WSW
